Time,TemperatureF,DewpointF,PressureIn,WindDirection,WindDirectionDegrees,WindSpeedMPH,WindSpeedGustMPH,Humidity,HourlyPrecipIn,Conditions,Clouds,dailyrainin,SoftwareType,DateUTC
2013-04-27 00:11:00,48.7,32.0,30.35,WNW,292,0.0,0.0,53,0.00,,,0.00,weatherlink.com 1.10,2013-04-27 04:11:00,
2013-04-27 00:26:00,48.4,33.0,30.35,WNW,292,0.0,0.0,55,0.00,,,0.00,weatherlink.com 1.10,2013-04-27 04:26:00,
2013-04-27 00:41:00,48.6,33.0,30.36,WNW,292,0.0,1.0,55,0.00,,,0.00,weatherlink.com 1.10,2013-04-27 04:41:00,
2013-04-27 00:56:00,49.1,33.0,30.36,NNW,346,0.0,4.0,54,0.00,,,0.00,weatherlink.com 1.10,2013-04-27 04:56:00,
2013-04-27 01:11:00,49.9,33.0,30.36,NNW,340,1.0,2.0,53,0.00,,,0.00,weatherlink.com 1.10,2013-04-27 05:11:00,
2013-04-27 01:26:00,49.4,33.0,30.36,NNW,340,0.0,1.0,54,0.00,,,0.00,weatherlink.com 1.10,2013-04-27 05:26:00,
2013-04-27 01:41:00,48.6,33.0,30.36,NNW,340,0.0,0.0,56,0.00,,,0.00,weatherlink.com 1.10,2013-04-27 05:41:00,
2013-04-27 01:56:00,47.7,33.0,30.36,NNW,340,0.0,0.0,58,0.00,,,0.00,weatherlink.com 1.10,2013-04-27 05:56:00,
2013-04-27 02:11:00,47.4,33.0,30.36,NNW,340,0.0,0.0,57,0.00,,,0.00,weatherlink.com 1.10,2013-04-27 06:11:00,
2013-04-27 02:26:00,47.1,33.0,30.36,NNW,340,0.0,0.0,58,0.00,,,0.00,weatherlink.com 1.10,2013-04-27 06:26:00,
2013-04-27 02:41:00,46.6,33.0,30.35,NNW,340,0.0,0.0,59,0.00,,,0.00,weatherlink.com 1.10,2013-04-27 06:41:00,
2013-04-27 02:56:00,46.0,33.0,30.35,NNW,340,0.0,0.0,61,0.00,,,0.00,weatherlink.com 1.10,2013-04-27 06:56:00,
2013-04-27 03:11:00,45.4,33.0,30.36,NNW,340,0.0,0.0,62,0.00,,,0.00,weatherlink.com 1.10,2013-04-27 07:11:00,
2013-04-27 03:26:00,44.6,33.0,30.35,NNW,340,0.0,0.0,65,0.00,,,0.00,weatherlink.com 1.10,2013-04-27 07:26:00,
2013-04-27 03:41:00,43.8,33.0,30.35,NNW,340,0.0,0.0,67,0.00,,,0.00,weatherlink.com 1.10,2013-04-27 07:41:00,
2013-04-27 03:56:00,43.1,33.0,30.36,NNW,340,0.0,0.0,68,0.00,,,0.00,weatherlink.com 1.10,2013-04-27 07:56:00,
2013-04-27 04:12:00,42.6,33.0,30.36,NNW,340,0.0,0.0,69,0.00,,,0.00,weatherlink.com 1.10,2013-04-27 08:12:00,
2013-04-27 04:27:00,42.2,33.0,30.36,NNW,340,0.0,0.0,70,0.00,,,0.00,weatherlink.com 1.10,2013-04-27 08:27:00,
2013-04-27 04:42:00,41.8,33.0,30.36,NNW,340,0.0,0.0,71,0.00,,,0.00,weatherlink.com 1.10,2013-04-27 08:42:00,
2013-04-27 04:57:00,41.3,33.0,30.36,NNW,340,0.0,0.0,72,0.00,,,0.00,weatherlink.com 1.10,2013-04-27 08:57:00,
2013-04-27 05:12:00,40.9,33.0,30.35,NNW,340,0.0,0.0,72,0.00,,,0.00,weatherlink.com 1.10,2013-04-27 09:12:00,
2013-04-27 05:27:00,40.6,32.0,30.35,NNW,340,0.0,0.0,72,0.00,,,0.00,weatherlink.com 1.10,2013-04-27 09:27:00,
2013-04-27 05:42:00,40.6,32.0,30.36,NNW,340,0.0,0.0,72,0.00,,,0.00,weatherlink.com 1.10,2013-04-27 09:42:00,
2013-04-27 05:57:00,40.6,33.0,30.36,NNW,340,0.0,0.0,73,0.00,,,0.00,weatherlink.com 1.10,2013-04-27 09:57:00,
2013-04-27 06:12:00,40.3,33.0,30.36,NNW,340,0.0,0.0,75,0.00,,,0.00,weatherlink.com 1.10,2013-04-27 10:12:00,
2013-04-27 06:27:00,39.8,33.0,30.36,NNW,340,0.0,0.0,77,0.00,,,0.00,weatherlink.com 1.10,2013-04-27 10:27:00,
2013-04-27 06:42:00,39.8,34.0,30.37,NNW,340,0.0,0.0,79,0.00,,,0.00,weatherlink.com 1.10,2013-04-27 10:42:00,
2013-04-27 06:57:00,40.5,34.0,30.37,NNW,340,0.0,0.0,77,0.00,,,0.00,weatherlink.com 1.10,2013-04-27 10:57:00,
2013-04-27 07:12:00,42.6,33.0,30.37,NNW,340,0.0,0.0,69,0.00,,,0.00,weatherlink.com 1.10,2013-04-27 11:12:00,
2013-04-27 07:27:00,45.6,34.0,30.38,NNW,340,0.0,2.0,64,0.00,,,0.00,weatherlink.com 1.10,2013-04-27 11:27:00,
2013-04-27 07:42:00,48.5,33.0,30.38,NNW,340,0.0,2.0,56,0.00,,,0.00,weatherlink.com 1.10,2013-04-27 11:42:00,
2013-04-27 07:57:00,50.3,33.0,30.38,North,355,2.0,3.0,52,0.00,,,0.00,weatherlink.com 1.10,2013-04-27 11:57:00,
2013-04-27 08:12:00,51.8,33.0,30.38,NNE,17,0.0,3.0,49,0.00,,,0.00,weatherlink.com 1.10,2013-04-27 12:12:00,
2013-04-27 08:27:00,53.3,33.0,30.38,NNW,345,2.0,3.0,47,0.00,,,0.00,weatherlink.com 1.10,2013-04-27 12:27:00,
2013-04-27 08:42:00,54.9,33.0,30.38,East,80,2.0,3.0,43,0.00,,,0.00,weatherlink.com 1.10,2013-04-27 12:42:00,
2013-04-27 08:57:00,56.4,32.0,30.38,ENE,61,1.0,2.0,40,0.00,,,0.00,weatherlink.com 1.10,2013-04-27 12:57:00,
2013-04-27 09:12:00,57.9,32.0,30.37,ENE,63,1.0,3.0,38,0.00,,,0.00,weatherlink.com 1.10,2013-04-27 13:12:00,
2013-04-27 09:27:00,59.6,33.0,30.37,WNW,287,0.0,3.0,37,0.00,,,0.00,weatherlink.com 1.10,2013-04-27 13:27:00,
2013-04-27 09:42:00,60.0,32.0,30.37,NW,321,1.0,3.0,35,0.00,,,0.00,weatherlink.com 1.10,2013-04-27 13:42:00,
2013-04-27 09:57:00,60.8,32.0,30.37,NE,40,0.0,3.0,34,0.00,,,0.00,weatherlink.com 1.10,2013-04-27 13:57:00,
2013-04-27 10:12:00,61.6,34.0,30.37,ESE,109,1.0,3.0,35,0.00,,,0.00,weatherlink.com 1.10,2013-04-27 14:12:00,
2013-04-27 10:27:00,61.8,32.0,30.37,WNW,290,1.0,5.0,33,0.00,,,0.00,weatherlink.com 1.10,2013-04-27 14:27:00,
2013-04-27 10:42:00,62.5,34.0,30.37,NE,49,1.0,4.0,34,0.00,,,0.00,weatherlink.com 1.10,2013-04-27 14:42:00,
2013-04-27 10:57:00,63.7,34.0,30.36,WSW,242,1.0,5.0,33,0.00,,,0.00,weatherlink.com 1.10,2013-04-27 14:57:00,
2013-04-27 11:13:00,64.9,34.0,30.36,NE,42,0.0,3.0,32,0.00,,,0.00,weatherlink.com 1.10,2013-04-27 15:13:00,
2013-04-27 11:28:00,65.3,31.0,30.35,ESE,110,2.0,6.0,28,0.00,,,0.00,weatherlink.com 1.10,2013-04-27 15:28:00,
2013-04-27 11:43:00,66.1,33.0,30.35,NE,52,1.0,4.0,29,0.00,,,0.00,weatherlink.com 1.10,2013-04-27 15:43:00,
2013-04-27 11:58:00,66.7,33.0,30.34,SE,134,2.0,6.0,29,0.00,,,0.00,weatherlink.com 1.10,2013-04-27 15:58:00,
2013-04-27 12:13:00,67.6,34.0,30.33,WNW,292,1.0,6.0,29,0.00,,,0.00,weatherlink.com 1.10,2013-04-27 16:13:00,
2013-04-27 12:28:00,67.4,32.0,30.33,NW,308,2.0,9.0,27,0.00,,,0.00,weatherlink.com 1.10,2013-04-27 16:28:00,
2013-04-27 12:43:00,67.0,32.0,30.32,WSW,251,2.0,8.0,27,0.00,,,0.00,weatherlink.com 1.10,2013-04-27 16:43:00,
2013-04-27 12:58:00,66.4,32.0,30.31,NW,304,0.0,7.0,28,0.00,,,0.00,weatherlink.com 1.10,2013-04-27 16:58:00,
2013-04-27 13:13:00,66.6,32.0,30.30,NNW,345,2.0,8.0,28,0.00,,,0.00,weatherlink.com 1.10,2013-04-27 17:13:00,
2013-04-27 13:28:00,66.7,32.0,30.30,WSW,244,0.0,3.0,28,0.00,,,0.00,weatherlink.com 1.10,2013-04-27 17:28:00,
2013-04-27 13:43:00,66.8,33.0,30.29,SE,135,0.0,3.0,28,0.00,,,0.00,weatherlink.com 1.10,2013-04-27 17:43:00,
2013-04-27 13:58:00,67.8,29.0,30.28,NNW,348,1.0,5.0,23,0.00,,,0.00,weatherlink.com 1.10,2013-04-27 17:58:00,
2013-04-27 14:13:00,68.1,30.0,30.28,NE,36,0.0,7.0,24,0.00,,,0.00,weatherlink.com 1.10,2013-04-27 18:13:00,
2013-04-27 14:28:00,68.4,31.0,30.27,West,273,2.0,8.0,25,0.00,,,0.00,weatherlink.com 1.10,2013-04-27 18:28:00,
2013-04-27 14:43:00,68.8,30.0,30.27,ENE,73,1.0,5.0,24,0.00,,,0.00,weatherlink.com 1.10,2013-04-27 18:43:00,
2013-04-27 14:58:00,68.7,29.0,30.26,East,79,1.0,6.0,23,0.00,,,0.00,weatherlink.com 1.10,2013-04-27 18:58:00,
2013-04-27 15:13:00,69.0,32.0,30.25,North,360,2.0,4.0,25,0.00,,,0.00,weatherlink.com 1.10,2013-04-27 19:13:00,
2013-04-27 15:28:00,70.2,34.0,30.25,NNW,346,0.0,4.0,26,0.00,,,0.00,weatherlink.com 1.10,2013-04-27 19:28:00,
2013-04-27 15:43:00,69.9,33.0,30.25,ESE,117,4.0,9.0,26,0.00,,,0.00,weatherlink.com 1.10,2013-04-27 19:43:00,
2013-04-27 15:58:00,68.7,33.0,30.24,SE,144,3.0,6.0,27,0.00,,,0.00,weatherlink.com 1.10,2013-04-27 19:58:00,
2013-04-27 16:13:00,68.5,31.0,30.23,SE,140,3.0,4.0,25,0.00,,,0.00,weatherlink.com 1.10,2013-04-27 20:13:00,
2013-04-27 16:28:00,69.2,36.0,30.23,SE,139,0.0,4.0,29,0.00,,,0.00,weatherlink.com 1.10,2013-04-27 20:28:00,
2013-04-27 16:43:00,69.3,34.0,30.23,East,92,2.0,4.0,27,0.00,,,0.00,weatherlink.com 1.10,2013-04-27 20:43:00,
2013-04-27 16:58:00,69.2,33.0,30.23,SSW,207,1.0,5.0,26,0.00,,,0.00,weatherlink.com 1.10,2013-04-27 20:58:00,
2013-04-27 17:13:00,69.1,34.0,30.23,East,90,2.0,5.0,27,0.00,,,0.00,weatherlink.com 1.10,2013-04-27 21:13:00,
2013-04-27 17:28:00,69.0,35.0,30.23,SE,142,2.0,5.0,29,0.00,,,0.00,weatherlink.com 1.10,2013-04-27 21:28:00,
2013-04-27 17:43:00,67.6,34.0,30.23,SE,140,3.0,7.0,29,0.00,,,0.00,weatherlink.com 1.10,2013-04-27 21:43:00,
2013-04-27 17:58:00,67.2,35.0,30.23,SE,138,3.0,7.0,31,0.00,,,0.00,weatherlink.com 1.10,2013-04-27 21:58:00,
2013-04-27 18:13:00,66.1,35.0,30.23,ESE,122,3.0,6.0,32,0.00,,,0.00,weatherlink.com 1.10,2013-04-27 22:13:00,
2013-04-27 18:28:00,65.6,35.0,30.23,ESE,120,5.0,8.0,32,0.00,,,0.00,weatherlink.com 1.10,2013-04-27 22:28:00,
2013-04-27 18:43:00,65.1,34.0,30.23,SSW,192,3.0,6.0,32,0.00,,,0.00,weatherlink.com 1.10,2013-04-27 22:43:00,
2013-04-27 18:58:00,64.6,34.0,30.23,ESE,120,1.0,5.0,32,0.00,,,0.00,weatherlink.com 1.10,2013-04-27 22:58:00,
2013-04-27 19:13:00,64.2,34.0,30.22,SSW,205,2.0,7.0,32,0.00,,,0.00,weatherlink.com 1.10,2013-04-27 23:13:00,
2013-04-27 19:28:00,63.6,34.0,30.23,South,188,0.0,3.0,33,0.00,,,0.00,weatherlink.com 1.10,2013-04-27 23:28:00,
2013-04-27 19:43:00,62.8,34.0,30.23,SSW,194,4.0,5.0,34,0.00,,,0.00,weatherlink.com 1.10,2013-04-27 23:43:00,
2013-04-27 19:59:00,61.9,33.0,30.23,South,184,3.0,4.0,34,0.00,,,0.00,weatherlink.com 1.10,2013-04-27 23:59:00,
2013-04-27 20:14:00,61.0,33.0,30.24,SSW,200,2.0,6.0,35,0.00,,,0.00,weatherlink.com 1.10,2013-04-28 00:14:00,
2013-04-27 20:29:00,60.3,33.0,30.24,SSW,193,0.0,3.0,36,0.00,,,0.00,weatherlink.com 1.10,2013-04-28 00:29:00,
2013-04-27 20:44:00,59.6,34.0,30.25,South,184,2.0,2.0,38,0.00,,,0.00,weatherlink.com 1.10,2013-04-28 00:44:00,
2013-04-27 20:59:00,59.1,34.0,30.25,SSE,151,2.0,5.0,39,0.00,,,0.00,weatherlink.com 1.10,2013-04-28 00:59:00,
2013-04-27 21:14:00,58.5,33.0,30.26,South,188,0.0,4.0,39,0.00,,,0.00,weatherlink.com 1.10,2013-04-28 01:14:00,
2013-04-27 21:29:00,57.9,34.0,30.26,South,187,0.0,2.0,40,0.00,,,0.00,weatherlink.com 1.10,2013-04-28 01:29:00,
2013-04-27 21:44:00,57.3,33.0,30.26,SSE,157,0.0,3.0,40,0.00,,,0.00,weatherlink.com 1.10,2013-04-28 01:44:00,
2013-04-27 21:59:00,56.8,32.0,30.26,SSE,158,0.0,2.0,39,0.00,,,0.00,weatherlink.com 1.10,2013-04-28 01:59:00,
2013-04-27 22:14:00,56.3,31.0,30.26,South,174,1.0,2.0,39,0.00,,,0.00,weatherlink.com 1.10,2013-04-28 02:14:00,
2013-04-27 22:29:00,55.8,31.0,30.26,South,175,0.0,3.0,39,0.00,,,0.00,weatherlink.com 1.10,2013-04-28 02:29:00,
2013-04-27 22:44:00,55.3,31.0,30.25,SSW,198,0.0,3.0,39,0.00,,,0.00,weatherlink.com 1.10,2013-04-28 02:44:00,
2013-04-27 22:59:00,54.7,31.0,30.25,SSW,198,0.0,1.0,41,0.00,,,0.00,weatherlink.com 1.10,2013-04-28 02:59:00,
2013-04-27 23:14:00,53.8,32.0,30.25,SSW,198,0.0,1.0,44,0.00,,,0.00,weatherlink.com 1.10,2013-04-28 03:14:00,
2013-04-27 23:29:00,52.7,32.0,30.25,SSW,198,0.0,0.0,46,0.00,,,0.00,weatherlink.com 1.10,2013-04-28 03:29:00,
2013-04-27 23:44:00,51.7,32.0,30.25,SSW,198,0.0,0.0,48,0.00,,,0.00,weatherlink.com 1.10,2013-04-28 03:44:00,
2013-04-27 23:59:00,50.8,33.0,30.25,SSW,198,0.0,0.0,51,0.00,,,0.00,weatherlink.com 1.10,2013-04-28 03:59:00,